Regional Weather Roundup
Issued by NWS Jackson, KY

Home | Current Version | Previous Version | Text Only | Print | Product List | Glossary Off
Versions: 1 2 3 4 5 6 7 8 9 10 11 12 13 14 15 16 17 18 19 20 21 22 23 24 25 26 27 28 29 30 31 32 33 34 35 36 37 38 39 40 41 42 43 44 45 46 47 48

000
ASUS43 KJKL 051210
RWRJKL

EAST KENTUCKY HOURLY WEATHER ROUNDUP
NATIONAL WEATHER SERVICE JACKSON KY
800 AM EDT WED AUG 05 2015

NOTE: "FAIR" INDICATES FEW OR NO CLOUDS BELOW 12,000 FEET WITH
NO SIGNIFICANT WEATHER AND/OR OBSTRUCTIONS TO VISIBILITY.

* THESE REPORTS ARE NOT UNDER NWS QUALITY CONTROL AND MAY NOT
  REPORT WEATHER SUCH AS PRECIPITATION AND FOG.

KYZ079-080-083-085-087-088-110-112-115-119-120-051300
...EASTERN KENTUCKY...

CITY           SKY/WX    TMP DP  RH WIND       PRES   REMARKS
JACKSON        FOG       66  66 100 CALM      30.09R VSB<1/4
6HR MIN TEMP:  66; 6HR MAX TEMP:  68;

LONDON         CLOUDY    69  65  86 NE3       30.08S
6HR MIN TEMP:  68; 6HR MAX TEMP:  70;

SOMERSET*      PTSUNNY   66  66 100 CALM      30.09R
MONTICELLO*    CLOUDY    69  69 100 CALM      30.08S FOG
6HR MIN TEMP:  68; 6HR MAX TEMP:  72;

WILLIAMSBURG*  SUNNY     68  68 100 CALM      30.08R
MIDDLESBORO*   CLOUDY    67  66  96 CALM      30.10R
6HR MIN TEMP:  66; 6HR MAX TEMP:  70;

HAZARD APT*    FOG       68  68 100 CALM      30.10R VSB 1/4
BLACK MTN*       N/A     66  61  82 NE1         N/A
PIKEVILLE APT* FOG       66  66 100 CALM      30.09S VSB 0
BIG SANDY*     FOG       67  67 100 CALM      30.08S VSB 1/4
6HR MIN TEMP:  66; 6HR MAX TEMP:  69;

MOREHEAD APT*  SUNNY     66  66 100 CALM      30.09R FOG
$$

KYZ035-036-041-042-044-050-067-078-099-051300
...CENTRAL KENTUCKY...

CITY           SKY/WX    TMP DP  RH WIND       PRES   REMARKS
MT STERLING*   PTSUNNY   66  66 100 CALM      30.08S
FLEMING/MASON* SUNNY     66  64  94 CALM      30.08R
DANVILLE*      PTSUNNY   66  66 100 CALM      30.08S
RICHMOND*      PTSUNNY   66  64  94 CALM      30.07F
LEXINGTON      MOSUNNY   67  65  93 CALM      30.06S
6HR MIN TEMP:  65; 6HR MAX TEMP:  67;

FRANKFORT      MOSUNNY   67  65  93 CALM      30.05R
6HR MIN TEMP:  65; 6HR MAX TEMP:  68;

$$

KYZ091>093-OHZ055-061-077-WVZ005-015-034-035-042-051300
...SOUTHERN OHIO/WEST VIRGINIA...

CITY           SKY/WX    TMP DP  RH WIND       PRES   REMARKS
COVINGTON      MOSUNNY   68  63  84 N3        30.06R
COLUMBUS       MOSUNNY   65  60  84 N3        30.06R
DAYTON         MOSUNNY   63  60  90 N3        30.08R
WILMINGTON     SUNNY     65  60  84 CALM      30.07R
HUNTINGTON     MOSUNNY   67  67 100 SW5       30.06R
CHARLESTON     PTSUNNY   70  66  87 SW5       30.06R
PINEVILLE*     CLOUDY    66  66 100 MISG      30.16R FOG
BECKLEY        CLOUDY    67  63  87 SW6       30.13R
BLUEFIELD      CLOUDY    68  62  81 W5        30.16R
$$

VAZ002-007-008-TNZ017-027-036-066-071-051300
...SOUTHWEST VIRGINIA/EAST TENNESSEE...

CITY           SKY/WX    TMP DP  RH WIND       PRES   REMARKS
WISE*          CLOUDY    68  66  94 CALM      30.17R
ABINGDON*      CLOUDY    68  65  91 E3        30.13R
BRISTOL        CLOUDY    66  65  96 CALM      30.10S FOG
KNOXVILLE      PTSUNNY   71  66  84 NE3       30.05
OAK RIDGE      MOSUNNY   72  68  87 CALM      30.07R
CROSSVILLE     PTSUNNY   71  67  87 CALM      30.10S
NASHVILLE      MOSUNNY   77  71  82 E3        30.02R
$$

...KEY TO REMARKS...
VSB - VISIBILITY IN MILES
WCI - WIND CHILL INDEX
HX  - HEAT INDEX

$$



USA.gov is the U.S. government's official web portal to all federal, state and local government web resources and services.